"# Mixing ratio of CO2 (xCO2) in dry air measured onboard R/V Hakuho-maru of the Ocean Research Institue, the University of Tokyo.",,,,,,,,,,,,,,,,,,,,,,
# Version 1.2; 02 Mar. 2008.,,,,,,,,,,,,,,,,,,,,,,
# Measured by Meteorological Research Institute. ,,,,,,,,,,,,,,,,,,,,,,
# PI : H. Y. Inoue,,,,,,,,,,,,,,,,,,,,,,
# Concetrarion scale = MRI87,,,,,,,,,,,,,,,,,,,,,,
# Time = UTC,,,,,,,,,,,,,,,,,,,,,,
# ,,,,,,,,,,,,,,,,,,,,,,
Ship,Cruise,Serial No.,Date,,,Time,,Latitude,Longitude,xCO2_Air,F,xCO2_Sea,F,Wind_Dir,Wind_Spd,Atm_Prs,Atm_Tmp.,SST,F,SSS,F,pH2O
,,,Year,Month,Day,Hour,Min.,Deg.,Deg.,ppm,,ppm,,Deg.,m/s,hPa,deg.C,deg.C,,,,hPa
Hakuho-maru,KH83-4,1,1983,11,23,7,,31.067,141.2,346.4,3,-9.9,9,-99,-9.9,1019.5,-99.9,23.4,2,-9.999,9,28.23
Hakuho-maru,KH83-4,2,1983,11,23,8,,30.883,141.267,346,2,-9.9,9,-99,-9.9,1018.9,-99.9,23.4,2,-9.999,9,28.23
Hakuho-maru,KH83-4,3,1983,11,23,9,,30.7,141.017,346.1,3,-9.9,9,-99,-9.9,1018.7,-99.9,23.5,2,-9.999,9,28.41
Hakuho-maru,KH83-4,6,1983,11,23,12,,30.167,141.55,344,2,-9.9,9,-99,-9.9,1018.3,-99.9,22.7,2,-9.999,9,27.06
Hakuho-maru,KH83-4,7,1983,11,23,13,,29.983,141.617,343,2,-9.9,9,-99,-9.9,1017.7,-99.9,22.9,2,-9.999,9,27.39
Hakuho-maru,KH83-4,8,1983,11,23,14,,29.817,141.683,343.7,2,-9.9,9,-99,-9.9,1017,-99.9,22.8,2,-9.999,9,27.23
Hakuho-maru,KH83-4,9,1983,11,23,15,,29.633,141.75,343.6,2,-9.9,9,-99,-9.9,1016.4,-99.9,22.6,2,-9.999,9,26.9
Hakuho-maru,KH83-4,10,1983,11,23,16,,29.467,141.8,343.4,2,-9.9,9,-99,-9.9,1015.1,-99.9,22.8,2,-9.999,9,27.23
Hakuho-maru,KH83-4,11,1983,11,23,17,,29.317,141.867,343.2,2,-9.9,9,-99,-9.9,1014,-99.9,22.8,2,-9.999,9,27.23
Hakuho-maru,KH83-4,12,1983,11,23,18,,29.15,141.917,342.7,2,-9.9,9,-99,-9.9,1012.5,-99.9,22.7,2,-9.999,9,27.06
Hakuho-maru,KH83-4,13,1983,11,23,19,,28.983,141.967,342.4,2,-9.9,9,-99,-9.9,1011.7,-99.9,22.6,2,-9.999,9,26.9
Hakuho-maru,KH83-4,14,1983,11,23,20,,28.833,142.017,342,2,-9.9,9,-99,-9.9,1011.5,-99.9,22.6,2,-9.999,9,26.9
Hakuho-maru,KH83-4,15,1983,11,23,21,,28.7,142.083,342.6,2,-9.9,9,-99,-9.9,1010.7,-99.9,22.6,2,-9.999,9,26.9
Hakuho-maru,KH83-4,16,1983,11,23,22,,28.55,142.133,342.2,2,-9.9,9,-99,-9.9,1010.1,-99.9,22.6,2,-9.999,9,26.9
Hakuho-maru,KH83-4,17,1983,11,23,23,,28.4,142.183,342.2,2,-9.9,9,-99,-9.9,1010.3,-99.9,22.5,2,-9.999,9,26.74
Hakuho-maru,KH83-4,18,1983,11,24,0,,28.25,142.267,342.7,2,-9.9,9,-99,-9.9,1010.2,-99.9,22.4,2,-9.999,9,26.57
Hakuho-maru,KH83-4,19,1983,11,24,1,,28.1,142.333,341.9,2,-9.9,9,-99,-9.9,1009.7,-99.9,22.4,2,-9.999,9,26.57
Hakuho-maru,KH83-4,20,1983,11,24,2,,27.933,142.417,341.3,2,-9.9,9,-99,-9.9,1009.4,-99.9,22.4,2,-9.999,9,26.57
Hakuho-maru,KH83-4,21,1983,11,24,3,,27.783,142.483,341.3,2,304.5,2,-99,-9.9,1008.6,-99.9,22.2,2,-9.999,9,26.25
Hakuho-maru,KH83-4,22,1983,11,24,4,,27.6,142.567,341.3,2,307.4,2,-99,-9.9,1007.7,-99.9,22.5,2,-9.999,9,26.74
Hakuho-maru,KH83-4,23,1983,11,24,5,,27.417,142.65,341.1,2,309.3,2,-99,-9.9,1007.6,-99.9,22.7,2,-9.999,9,27.06
Hakuho-maru,KH83-4,24,1983,11,24,6,,27.233,142.717,341.3,2,308.7,2,-99,-9.9,1008,-99.9,22.6,2,-9.999,9,26.9
Hakuho-maru,KH83-4,25,1983,11,24,7,,27.05,142.8,339.7,3,306.4,2,-99,-9.9,1008.3,-99.9,22.6,2,-9.999,9,26.9
Hakuho-maru,KH83-4,26,1983,11,24,8,,26.833,142.883,341,2,307.9,2,-99,-9.9,1009.2,-99.9,22.6,2,-9.999,9,26.9
Hakuho-maru,KH83-4,27,1983,11,24,9,,26.633,142.95,341.7,2,310.6,2,-99,-9.9,1009.8,-99.9,22.7,2,-9.999,9,27.06
Hakuho-maru,KH83-4,28,1983,11,24,10,,26.417,143.033,342.8,2,309,2,-99,-9.9,1011.3,-99.9,22.5,2,-9.999,9,26.74
Hakuho-maru,KH83-4,29,1983,11,24,11,,26.2,143.1,342.5,2,306.2,2,-99,-9.9,1011.5,-99.9,22.4,2,-9.999,9,26.57
Hakuho-maru,KH83-4,30,1983,11,24,12,,25.983,143.167,342.4,2,307.2,2,-99,-9.9,1011.8,-99.9,22.6,2,-9.999,9,26.9
Hakuho-maru,KH83-4,31,1983,11,24,13,,25.767,143.233,342.9,2,310.3,2,-99,-9.9,1012,-99.9,23.3,2,-9.999,9,28.06
Hakuho-maru,KH83-4,32,1983,11,24,14,,25.55,143.3,343.2,2,315.9,2,-99,-9.9,1012.2,-99.9,23.7,2,-9.999,9,28.75
Hakuho-maru,KH83-4,33,1983,11,24,15,,25.333,143.367,343.2,2,318.1,2,-99,-9.9,1012,-99.9,23.7,2,-9.999,9,28.75
Hakuho-maru,KH83-4,34,1983,11,24,16,,25.133,143.433,343.2,2,321.2,2,-99,-9.9,1012.2,-99.9,23.7,2,-9.999,9,28.75
Hakuho-maru,KH83-4,35,1983,11,24,17,,24.917,143.5,343.2,2,321.8,2,-99,-9.9,1012,-99.9,24,2,-9.999,9,29.27
Hakuho-maru,KH83-4,36,1983,11,24,18,,24.717,143.55,343.4,2,325.4,2,-99,-9.9,1012,-99.9,24.2,2,-9.999,9,29.63
Hakuho-maru,KH83-4,37,1983,11,24,19,,24.5,143.617,343.2,2,329.1,2,-99,-9.9,1012.3,-99.9,24.4,2,-9.999,9,29.98
Hakuho-maru,KH83-4,38,1983,11,24,20,,24.3,143.717,343.2,2,325.7,2,-99,-9.9,1012.4,-99.9,24.6,2,-9.999,9,30.34
Hakuho-maru,KH83-4,39,1983,11,24,21,,24.1,143.817,342.8,2,322.5,2,-99,-9.9,1012.9,-99.9,25.5,2,-9.999,9,32.02
Hakuho-maru,KH83-4,40,1983,11,24,22,,23.883,143.9,343.3,2,323.3,2,-99,-9.9,1013.7,-99.9,26.2,2,-9.999,9,33.37
Hakuho-maru,KH83-4,41,1983,11,24,23,,23.683,144,341.9,2,323.5,2,-99,-9.9,1014.3,-99.9,26.3,2,-9.999,9,33.57
Hakuho-maru,KH83-4,42,1983,11,25,0,,23.483,144.083,342.3,2,326.3,2,-99,-9.9,1014.4,-99.9,26.6,2,-9.999,9,34.17
Hakuho-maru,KH83-4,43,1983,11,25,1,,23.267,144.167,342.4,2,327.8,2,-99,-9.9,1014,-99.9,26.5,2,-9.999,9,33.97
Hakuho-maru,KH83-4,44,1983,11,25,2,,23.067,144.25,342.5,2,330.2,2,-99,-9.9,1013.4,-99.9,26.7,2,-9.999,9,34.37
Hakuho-maru,KH83-4,45,1983,11,25,3,,22.85,144.333,342.5,2,336.3,2,-99,-9.9,1012.6,-99.9,27.1,2,-9.999,9,35.19
Hakuho-maru,KH83-4,46,1983,11,25,4,,22.65,144.4,342.4,2,339.2,2,-99,-9.9,1012.5,-99.9,27.8,2,-9.999,9,36.66
Hakuho-maru,KH83-4,47,1983,11,25,5,,22.433,144.467,342.6,2,342.2,2,-99,-9.9,1012.3,-99.9,27.7,2,-9.999,9,36.45
Hakuho-maru,KH83-4,48,1983,11,25,6,,22.233,144.517,343.3,2,344.5,2,-99,-9.9,1012.5,-99.9,28,2,-9.999,9,37.09
Hakuho-maru,KH83-4,49,1983,11,25,7,,22.017,144.583,342.5,2,347.5,2,-99,-9.9,1012.5,-99.9,28,2,-9.999,9,37.09
Hakuho-maru,KH83-4,50,1983,11,25,8,,21.817,144.65,342.1,2,347,2,-99,-9.9,1013.2,-99.9,28.1,2,-9.999,9,37.31
Hakuho-maru,KH83-4,51,1983,11,25,9,,21.617,144.733,341.8,2,347.5,2,-99,-9.9,1013.6,-99.9,28.1,2,-9.999,9,37.31
Hakuho-maru,KH83-4,52,1983,11,25,10,,21.417,144.8,341.4,2,346,2,-99,-9.9,1014.1,-99.9,27.9,2,-9.999,9,36.87
Hakuho-maru,KH83-4,53,1983,11,25,11,,21.217,144.867,341.8,2,344.8,2,-99,-9.9,1014.5,-99.9,28,2,-9.999,9,37.09
Hakuho-maru,KH83-4,54,1983,11,25,12,,21.033,144.933,341.6,2,344.3,2,-99,-9.9,1014.3,-99.9,27.8,2,-9.999,9,36.66
Hakuho-maru,KH83-4,55,1983,11,25,13,,20.85,145.017,341.9,2,344.2,2,-99,-9.9,1014.3,-99.9,27.7,2,-9.999,9,36.45
Hakuho-maru,KH83-4,56,1983,11,25,14,,20.667,145.083,342.1,2,343.9,2,-99,-9.9,1014,-99.9,27.8,2,-9.999,9,36.66
Hakuho-maru,KH83-4,57,1983,11,25,15,,20.483,145.15,341.9,2,343.7,2,-99,-9.9,1013.9,-99.9,27.8,2,-9.999,9,36.66
Hakuho-maru,KH83-4,58,1983,11,25,16,,20.3,145.233,341.9,2,342.7,2,-99,-9.9,1013.6,-99.9,27.8,2,-9.999,9,36.66
Hakuho-maru,KH83-4,59,1983,11,25,17,,20.117,145.317,341.9,2,342.2,2,-99,-9.9,1013,-99.9,27.7,2,-9.999,9,36.45
Hakuho-maru,KH83-4,60,1983,11,25,18,,19.917,145.383,342.5,2,343.3,2,-99,-9.9,1012.9,-99.9,27.8,2,-9.999,9,36.66
Hakuho-maru,KH83-4,61,1983,11,25,19,,19.733,145.467,342.2,2,344.2,2,-99,-9.9,1012.8,-99.9,27.7,2,-9.999,9,36.45
Hakuho-maru,KH83-4,62,1983,11,25,20,,19.55,145.533,342.6,2,343.2,2,-99,-9.9,1013.2,-99.9,27.7,2,-9.999,9,36.45
Hakuho-maru,KH83-4,63,1983,11,25,21,,19.35,145.6,342.6,2,342.9,2,-99,-9.9,1013.8,-99.9,27.7,2,-9.999,9,36.45
Hakuho-maru,KH83-4,64,1983,11,25,22,,19.167,145.65,342.7,2,343.6,2,-99,-9.9,1014.5,-99.9,27.6,2,-9.999,9,36.23
Hakuho-maru,KH83-4,65,1983,11,25,23,,18.967,145.717,342.4,2,342.7,2,-99,-9.9,1014.7,-99.9,27.7,2,-9.999,9,36.45
Hakuho-maru,KH83-4,66,1983,11,26,0,,18.783,145.783,342.4,2,342.4,2,-99,-9.9,1014.3,-99.9,27.8,2,-9.999,9,36.66
Hakuho-maru,KH83-4,67,1983,11,26,1,,18.6,145.867,342,2,343.7,2,-99,-9.9,1013.8,-99.9,27.7,2,-9.999,9,36.45
Hakuho-maru,KH83-4,68,1983,11,26,2,,18.4,145.933,-9.9,9,344.9,2,-99,-9.9,1012.8,-99.9,27.7,2,-9.999,9,36.45
Hakuho-maru,KH83-4,69,1983,11,26,3,,18.217,146,-9.9,9,345.7,2,-99,-9.9,1012,-99.9,27.7,2,-9.999,9,36.45
Hakuho-maru,KH83-4,70,1983,11,26,4,,18.033,146.067,-9.9,9,346.7,2,-99,-9.9,1011.3,-99.9,27.6,2,-9.999,9,36.23
Hakuho-maru,KH83-4,71,1983,11,26,5,,17.833,146.15,344,2,346.7,2,-99,-9.9,1010.9,-99.9,27.6,2,-9.999,9,36.23
Hakuho-maru,KH83-4,72,1983,11,26,6,,17.65,146.217,343.7,2,345.6,2,-99,-9.9,1011.1,-99.9,27.6,2,-9.999,9,36.23
Hakuho-maru,KH83-4,73,1983,11,26,7,,17.45,146.283,342.7,2,343.2,2,-99,-9.9,1011.7,-99.9,27.5,2,-9.999,9,36.02
Hakuho-maru,KH83-4,74,1983,11,26,8,,17.267,146.367,342.9,2,341.2,2,-99,-9.9,1012.2,-99.9,27.5,2,-9.999,9,36.02
Hakuho-maru,KH83-4,75,1983,11,26,9,,17.067,146.45,342.9,2,340.9,2,-99,-9.9,1012.3,-99.9,27.5,2,-9.999,9,36.02
Hakuho-maru,KH83-4,76,1983,11,26,10,,16.883,146.517,342.8,2,341.4,2,-99,-9.9,1012.8,-99.9,27.6,2,-9.999,9,36.23
Hakuho-maru,KH83-4,77,1983,11,26,11,,16.683,146.6,342.6,2,341.5,2,-99,-9.9,1013,-99.9,27.6,2,-9.999,9,36.23
Hakuho-maru,KH83-4,78,1983,11,26,12,,16.483,146.667,343.2,2,343.3,2,-99,-9.9,1012.3,-99.9,27.6,2,-9.999,9,36.23
Hakuho-maru,KH83-4,79,1983,11,26,13,,16.3,146.75,342.5,2,346,2,-99,-9.9,1012.2,-99.9,27.7,2,-9.999,9,36.45
Hakuho-maru,KH83-4,80,1983,11,26,14,,16.1,146.817,342.5,2,351.6,2,-99,-9.9,1011.9,-99.9,27.8,2,-9.999,9,36.66
Hakuho-maru,KH83-4,81,1983,11,26,15,,15.9,146.883,-9.9,9,353.6,2,-99,-9.9,1011.8,-99.9,27.8,2,-9.999,9,36.66
Hakuho-maru,KH83-4,82,1983,11,26,16,,15.7,146.95,-9.9,9,352.3,2,-99,-9.9,1011.7,-99.9,27.8,2,-9.999,9,36.66
Hakuho-maru,KH83-4,83,1983,11,26,17,,15.517,147.033,342.8,2,357.1,2,-99,-9.9,1011.5,-99.9,27.8,2,-9.999,9,36.66
Hakuho-maru,KH83-4,84,1983,11,26,18,,15.317,147.1,342.4,2,357.8,2,-99,-9.9,1011.3,-99.9,27.8,2,-9.999,9,36.66
Hakuho-maru,KH83-4,85,1983,11,26,19,,15.117,147.167,342.5,2,356.6,2,-99,-9.9,1011,-99.9,27.8,2,-9.999,9,36.66
Hakuho-maru,KH83-4,86,1983,11,26,20,,14.917,147.25,342.4,2,356.7,2,-99,-9.9,1011.5,-99.9,27.8,2,-9.999,9,36.66
Hakuho-maru,KH83-4,87,1983,11,26,21,,14.717,147.317,342.9,2,357,2,-99,-9.9,1012.1,-99.9,27.8,2,-9.999,9,36.66
Hakuho-maru,KH83-4,88,1983,11,26,22,,14.517,147.4,342.9,2,356.7,2,-99,-9.9,1012.7,-99.9,27.8,2,-9.999,9,36.66
Hakuho-maru,KH83-4,89,1983,11,26,23,,14.317,147.467,343.2,2,357.2,2,-99,-9.9,1013,-99.9,27.8,2,-9.999,9,36.66
Hakuho-maru,KH83-4,90,1983,11,27,0,,14.117,147.55,343.8,2,357.7,2,-99,-9.9,1012.6,-99.9,27.7,2,-9.999,9,36.45
Hakuho-maru,KH83-4,91,1983,11,27,1,,13.917,147.617,343.7,2,358.6,2,-99,-9.9,1012,-99.9,27.8,2,-9.999,9,36.66
Hakuho-maru,KH83-4,92,1983,11,27,2,,13.717,147.7,343.5,2,358.4,2,-99,-9.9,1011.1,-99.9,27.8,2,-9.999,9,36.66
Hakuho-maru,KH83-4,93,1983,11,27,3,,13.517,147.767,343.6,2,355.8,2,-99,-9.9,1010.6,-99.9,27.8,2,-9.999,9,36.66
Hakuho-maru,KH83-4,94,1983,11,27,4,,13.333,147.833,343.6,2,353.8,2,-99,-9.9,1010,-99.9,27.8,2,-9.999,9,36.66
Hakuho-maru,KH83-4,95,1983,11,27,5,,13.15,147.9,343,2,354.4,2,-99,-9.9,1009.4,-99.9,27.8,2,-9.999,9,36.66
Hakuho-maru,KH83-4,96,1983,11,27,6,,12.95,147.967,343.1,2,354,2,-99,-9.9,1009.4,-99.9,27.8,2,-9.999,9,36.66
Hakuho-maru,KH83-4,97,1983,11,27,7,,12.767,148.033,342.9,2,353.9,2,-99,-9.9,1009.8,-99.9,27.8,2,-9.999,9,36.66
Hakuho-maru,KH83-4,98,1983,11,27,8,,12.583,148.033,342.9,2,352.3,2,-99,-9.9,1010.2,-99.9,27.8,2,-9.999,9,36.66
Hakuho-maru,KH83-4,99,1983,11,27,9,,12.383,148.183,342.3,2,353.3,2,-99,-9.9,1010.7,-99.9,27.8,2,-9.999,9,36.66
Hakuho-maru,KH83-4,100,1983,11,27,10,,12.2,148.267,342.8,2,353.5,2,-99,-9.9,1011.2,-99.9,27.8,2,-9.999,9,36.66
Hakuho-maru,KH83-4,101,1983,11,27,11,,12,148.333,342.7,2,353.8,2,-99,-9.9,1011.4,-99.9,27.8,2,-9.999,9,36.66
Hakuho-maru,KH83-4,102,1983,11,27,12,,11.8,148.4,342.3,2,351.5,2,-99,-9.9,1011.1,-99.9,27.8,2,-9.999,9,36.66
Hakuho-maru,KH83-4,103,1983,11,27,13,,11.617,148.483,342.8,2,350.8,2,-99,-9.9,1011,-99.9,27.8,2,-9.999,9,36.66
Hakuho-maru,KH83-4,104,1983,11,27,14,,11.417,148.55,342.7,2,350.9,2,-99,-9.9,1010.2,-99.9,27.8,2,-9.999,9,36.66
Hakuho-maru,KH83-4,105,1983,11,27,15,,11.217,148.617,342,2,350.2,2,-99,-9.9,1009.9,-99.9,27.8,2,-9.999,9,36.66
Hakuho-maru,KH83-4,106,1983,11,27,16,,11.033,148.7,342.3,2,352.9,2,-99,-9.9,1009.5,-99.9,27.8,2,-9.999,9,36.66
Hakuho-maru,KH83-4,107,1983,11,27,17,,10.833,148.767,342.5,2,352.7,2,-99,-9.9,1008.3,-99.9,27.8,2,-9.999,9,36.66
Hakuho-maru,KH83-4,108,1983,11,27,18,,10.633,148.833,342.3,2,351.2,2,-99,-9.9,1008.7,-99.9,27.7,2,-9.999,9,36.45
Hakuho-maru,KH83-4,109,1983,11,27,19,,10.433,148.917,342.9,2,351.2,2,-99,-9.9,1008.8,-99.9,27.7,2,-9.999,9,36.45
Hakuho-maru,KH83-4,110,1983,11,27,20,,10.233,148.983,342.5,2,350,2,-99,-9.9,1009.6,-99.9,27.7,2,-9.999,9,36.45
Hakuho-maru,KH83-4,111,1983,11,27,21,,10.033,149.067,342.6,2,341.6,2,-99,-9.9,1010.4,-99.9,27.7,2,-9.999,9,36.45
Hakuho-maru,KH83-4,112,1983,11,27,22,,9.833,149.133,342.2,2,344.8,2,-99,-9.9,1010.5,-99.9,27.7,2,-9.999,9,36.45
Hakuho-maru,KH83-4,113,1983,11,27,23,,9.65,149.217,342.7,2,345,2,-99,-9.9,1011.1,-99.9,27.7,2,-9.999,9,36.45
Hakuho-maru,KH83-4,114,1983,11,28,0,,9.45,149.3,342.3,2,348.4,2,-99,-9.9,1010.4,-99.9,27.8,2,-9.999,9,36.66
Hakuho-maru,KH83-4,115,1983,11,28,1,,9.267,149.367,341.5,2,347.3,2,-99,-9.9,1010.2,-99.9,27.9,2,-9.999,9,36.87
Hakuho-maru,KH83-4,116,1983,11,28,2,,9.067,149.45,342,2,349,2,-99,-9.9,1009.6,-99.9,27.8,2,-9.999,9,36.66
Hakuho-maru,KH83-4,117,1983,11,28,3,,8.867,149.533,342.8,2,347.4,2,-99,-9.9,1009,-99.9,28,2,-9.999,9,37.09
Hakuho-maru,KH83-4,118,1983,11,28,4,,8.683,149.6,342.3,2,349.5,2,-99,-9.9,1008,-99.9,27.9,2,-9.999,9,36.87
Hakuho-maru,KH83-4,119,1983,11,28,5,,8.483,149.683,342.6,2,346.9,2,-99,-9.9,1007.4,-99.9,28,2,-9.999,9,37.09
Hakuho-maru,KH83-4,120,1983,11,28,6,,8.283,149.75,342,2,348.5,2,-99,-9.9,1007.3,-99.9,28,2,-9.999,9,37.09
Hakuho-maru,KH83-4,121,1983,11,28,7,,8.083,149.8,342.7,2,346.7,2,-99,-9.9,1008.4,-99.9,28,2,-9.999,9,37.09
Hakuho-maru,KH83-4,122,1983,11,28,8,,7.883,149.85,342.8,2,347.4,2,-99,-9.9,1008.7,-99.9,28,2,-9.999,9,37.09
Hakuho-maru,KH83-4,123,1983,11,28,9,,7.683,149.9,342.5,2,348,2,-99,-9.9,1008.5,-99.9,28.1,2,-9.999,9,37.31
Hakuho-maru,KH83-4,124,1983,11,28,10,,7.483,149.95,343,2,346,2,-99,-9.9,1009.2,-99.9,28.1,2,-9.999,9,37.31
Hakuho-maru,KH83-4,125,1983,11,28,11,,7.283,150,342.5,2,346.3,2,-99,-9.9,1009.4,-99.9,28.1,2,-9.999,9,37.31
Hakuho-maru,KH83-4,126,1983,11,28,12,,7.083,150.067,342.4,2,349.7,2,-99,-9.9,1009.1,-99.9,28.1,2,-9.999,9,37.31
Hakuho-maru,KH83-4,127,1983,11,28,13,,6.867,150.117,342,2,348.8,2,-99,-9.9,1008.8,-99.9,28.1,2,-9.999,9,37.31
Hakuho-maru,KH83-4,128,1983,11,28,14,,6.667,150.167,342.4,2,349,2,-99,-9.9,1009,-99.9,28.2,2,-9.999,9,37.52
Hakuho-maru,KH83-4,129,1983,11,28,15,,6.467,150.233,342.3,2,347.2,2,-99,-9.9,1008.7,-99.9,28.2,2,-9.999,9,37.52
Hakuho-maru,KH83-4,130,1983,11,28,16,,6.267,150.283,342.1,2,346,2,-99,-9.9,1008,-99.9,28.2,2,-9.999,9,37.52
Hakuho-maru,KH83-4,131,1983,11,28,17,,6.067,150.35,342.1,2,345.5,2,-99,-9.9,1007.4,-99.9,28.1,2,-9.999,9,37.31
Hakuho-maru,KH83-4,132,1983,11,28,18,,5.867,150.4,341.8,2,345.6,2,-99,-9.9,1007.6,-99.9,28.1,2,-9.999,9,37.31
Hakuho-maru,KH83-4,133,1983,11,28,19,,5.65,150.467,342,2,345.6,2,-99,-9.9,1007.7,-99.9,28.2,2,-9.999,9,37.52
Hakuho-maru,KH83-4,134,1983,11,28,20,,5.45,150.517,341.6,2,347.1,2,-99,-9.9,1008.3,-99.9,28.3,2,-9.999,9,37.74
Hakuho-maru,KH83-4,135,1983,11,28,21,,5.233,150.583,342,2,347.5,2,-99,-9.9,1008.8,-99.9,28.3,2,-9.999,9,37.74
Hakuho-maru,KH83-4,136,1983,11,28,22,,5.017,150.633,342.3,2,347.3,2,-99,-9.9,1009.8,-99.9,28.4,2,-9.999,9,37.96
Hakuho-maru,KH83-4,137,1983,11,28,23,,4.817,150.7,342.5,2,347.5,2,-99,-9.9,1009.9,-99.9,28.3,2,-9.999,9,37.74
Hakuho-maru,KH83-4,138,1983,11,29,0,,4.6,150.767,342.8,2,348.2,2,-99,-9.9,1010,-99.9,28.4,2,-9.999,9,37.96
Hakuho-maru,KH83-4,139,1983,11,29,1,,4.4,150.833,342.4,2,348.6,2,-99,-9.9,1009.6,-99.9,28.5,2,-9.999,9,38.18
Hakuho-maru,KH83-4,140,1983,11,29,2,,4.183,150.9,343.3,2,352.2,2,-99,-9.9,1008.8,-99.9,28.5,2,-9.999,9,38.18
Hakuho-maru,KH83-4,141,1983,11,29,3,,3.983,150.95,342.9,2,353.5,2,-99,-9.9,1008.4,-99.9,28.6,2,-9.999,9,38.41
Hakuho-maru,KH83-4,142,1983,11,29,4,,3.783,151,342.2,2,346.3,2,-99,-9.9,1008,-99.9,28.6,2,-9.999,9,38.41
Hakuho-maru,KH83-4,143,1983,11,29,5,,3.583,151.05,344,2,355,2,-99,-9.9,1007.5,-99.9,28.2,2,-9.999,9,37.52
Hakuho-maru,KH83-4,144,1983,11,29,6,,3.383,151.1,343.3,2,354.6,2,-99,-9.9,1007.3,-99.9,28.5,2,-9.999,9,38.18
Hakuho-maru,KH83-4,145,1983,11,29,7,,3.183,151.15,341.9,2,354.7,2,-99,-9.9,1008.7,-99.9,28.4,2,-9.999,9,37.96
Hakuho-maru,KH83-4,146,1983,11,29,8,,2.983,151.217,342,2,352.8,2,-99,-9.9,1008.8,-99.9,28.6,2,-9.999,9,38.41
Hakuho-maru,KH83-4,147,1983,11,29,9,,2.783,151.267,342.2,2,349.4,2,-99,-9.9,1008.9,-99.9,28.2,2,-9.999,9,37.52
Hakuho-maru,KH83-4,148,1983,11,29,10,,2.583,151.317,342,2,351.4,2,-99,-9.9,1009.3,-99.9,28.2,2,-9.999,9,37.52
Hakuho-maru,KH83-4,149,1983,11,29,11,,2.383,151.383,341.7,2,349.7,2,-99,-9.9,1009.8,-99.9,28.1,2,-9.999,9,37.31
Hakuho-maru,KH83-4,150,1983,11,29,12,,2.183,151.433,342.2,2,351,2,-99,-9.9,1010,-99.9,28.1,2,-9.999,9,37.31
Hakuho-maru,KH83-4,151,1983,11,29,13,,1.983,151.5,341.9,2,351.9,2,-99,-9.9,1009.7,-99.9,28.1,2,-9.999,9,37.31
Hakuho-maru,KH83-4,152,1983,11,29,14,,1.783,151.55,342,2,352.6,2,-99,-9.9,1009.2,-99.9,28.2,2,-9.999,9,37.52
Hakuho-maru,KH83-4,153,1983,11,29,15,,1.583,151.625,342,2,354.5,2,-99,-9.9,1008.6,-99.9,28.1,2,-9.999,9,37.31
Hakuho-maru,KH83-4,154,1983,11,29,16,,1.383,151.7,342.2,2,349.7,2,-99,-9.9,1008.4,-99.9,28.2,2,-9.999,9,37.52
Hakuho-maru,KH83-4,155,1983,11,29,17,,1.167,151.775,342.4,2,348.7,2,-99,-9.9,1008.1,-99.9,28.2,2,-9.999,9,37.52
Hakuho-maru,KH83-4,156,1983,11,29,18,,0.967,151.85,341.8,2,346.1,2,-99,-9.9,1008.1,-99.9,28.2,2,-9.999,9,37.52
Hakuho-maru,KH83-4,157,1983,11,29,19,,0.75,151.9125,342.1,2,344,2,-99,-9.9,1008.4,-99.9,28.1,2,-9.999,9,37.31
Hakuho-maru,KH83-4,158,1983,11,29,20,,0.533,151.975,342.8,2,343.8,2,-99,-9.9,1009.2,-99.9,28,2,-9.999,9,37.09
Hakuho-maru,KH83-4,159,1983,11,29,21,,0.317,152.0375,342.6,2,343.9,2,-99,-9.9,1009.4,-99.9,28,2,-9.999,9,37.09
Hakuho-maru,KH83-4,160,1983,11,29,22,,0.1,152.1,342.1,2,344.5,2,-99,-9.9,1009.9,-99.9,28,2,-9.999,9,37.09
Hakuho-maru,KH83-4,161,1983,11,29,23,,-0.117,152.167,343.7,2,345,2,-99,-9.9,1010,-99.9,28,2,-9.999,9,37.09
Hakuho-maru,KH83-4,162,1983,11,30,0,,-0.333,152.217,343.2,2,345.5,2,-99,-9.9,1009.8,-99.9,28.1,2,-9.999,9,37.31
Hakuho-maru,KH83-4,163,1983,11,30,1,,-0.55,152.283,343,2,341.1,2,-99,-9.9,1009.1,-99.9,28.3,2,-9.999,9,37.74
Hakuho-maru,KH83-4,164,1983,11,30,2,,-0.767,152.333,343.1,2,338.4,2,-99,-9.9,1008.6,-99.9,28.6,2,-9.999,9,38.41
Hakuho-maru,KH83-4,165,1983,11,30,3,,-0.983,152.383,343.3,2,339.2,2,-99,-9.9,1007.9,-99.9,28.8,2,-9.999,9,38.85
Hakuho-maru,KH83-4,166,1983,11,30,4,,-1.183,152.433,342.9,2,343.7,2,-99,-9.9,1007,-99.9,28.8,2,-9.999,9,38.85
Hakuho-maru,KH83-4,167,1983,11,30,5,,-1.4,152.467,342.7,2,346.3,2,-99,-9.9,1006.9,-99.9,28.4,2,-9.999,9,37.96
Hakuho-maru,KH83-4,168,1983,11,30,6,,-1.6,152.517,343.2,2,341,2,-99,-9.9,1006.7,-99.9,28.1,2,-9.999,9,37.31
Hakuho-maru,KH83-4,169,1983,11,30,7,,-1.85,152.583,343.3,2,334,2,-99,-9.9,1007.3,-99.9,28.3,2,-9.999,9,37.74
Hakuho-maru,KH83-4,170,1983,11,30,8,,-2.1,152.65,343.7,2,332.8,2,-99,-9.9,1007.7,-99.9,28.5,2,-9.999,9,38.18
Hakuho-maru,KH83-4,171,1983,11,30,9,,-2.333,152.717,343.3,2,334.9,2,-99,-9.9,1008.5,-99.9,28.2,2,-9.999,9,37.52
Hakuho-maru,KH83-4,172,1983,11,30,10,,-2.583,152.783,343.2,2,335.6,2,-99,-9.9,1009.1,-99.9,28,2,-9.999,9,37.09
Hakuho-maru,KH83-4,173,1983,11,30,11,,-2.817,152.833,342.9,2,337.9,2,-99,-9.9,1009.4,-99.9,28,2,-9.999,9,37.09
Hakuho-maru,KH83-4,174,1983,11,30,12,,-3.05,152.867,343,2,350.3,2,-99,-9.9,1009.4,-99.9,27.8,2,-9.999,9,36.66
Hakuho-maru,KH83-4,175,1983,11,30,13,,-3.283,152.917,342.8,2,355.3,2,-99,-9.9,1009.3,-99.9,27.2,2,-9.999,9,35.4
Hakuho-maru,KH83-4,176,1983,11,30,14,,-3.517,152.95,341.8,2,353.1,2,-99,-9.9,1009.1,-99.9,28,2,-9.999,9,37.09
Hakuho-maru,KH83-4,177,1983,11,30,15,,-3.733,153.033,342,2,351.5,2,-99,-9.9,1008.5,-99.9,27.9,2,-9.999,9,36.87
Hakuho-maru,KH83-4,178,1983,11,30,16,,-3.95,153.1,343.7,2,356.3,2,-99,-9.9,1008,-99.9,27.3,2,-9.999,9,35.6
Hakuho-maru,KH83-4,179,1983,11,30,17,,-4.15,153.183,350.5,3,358.4,2,-99,-9.9,1008.1,-99.9,27.2,2,-9.999,9,35.4
Hakuho-maru,KH83-4,180,1983,11,30,18,,-4.367,153.25,343.3,2,355,2,-99,-9.9,1008,-99.9,27.3,2,-9.999,9,35.6
Hakuho-maru,KH83-4,181,1983,11,30,19,,-4.617,153.3,347.6,3,352.4,2,-99,-9.9,1009.1,-99.9,27.1,2,-9.999,9,35.19
Hakuho-maru,KH83-4,182,1983,11,30,20,,-4.85,153.35,347.8,3,352.6,2,-99,-9.9,1009.2,-99.9,28,2,-9.999,9,37.09
Hakuho-maru,KH83-4,183,1983,11,30,21,,-5.1,153.383,343.8,2,349.8,2,-99,-9.9,1009.8,-99.9,27.9,2,-9.999,9,36.87
Hakuho-maru,KH83-4,184,1983,11,30,22,,-5.333,153.433,343.3,2,350.6,2,-99,-9.9,1010.3,-99.9,27.7,2,-9.999,9,36.45
Hakuho-maru,KH83-4,185,1983,11,30,23,,-5.583,153.5,343.4,2,347.3,2,-99,-9.9,1010.4,-99.9,27.8,2,-9.999,9,36.66
Hakuho-maru,KH83-4,186,1983,12,1,0,,-5.817,153.567,343.2,2,341.3,2,-99,-9.9,1010.4,-99.9,27.8,2,-9.999,9,36.66
Hakuho-maru,KH83-4,187,1983,12,1,1,,-6.067,153.633,343.9,2,342.8,2,-99,-9.9,1010,-99.9,28,2,-9.999,9,37.09
Hakuho-maru,KH83-4,188,1983,12,1,2,,-6.3,153.7,343.9,2,352.2,2,-99,-9.9,1009.2,-99.9,28.7,2,-9.999,9,38.63
Hakuho-maru,KH83-4,189,1983,12,1,3,,-6.55,153.7,343.7,2,361.1,2,-99,-9.9,1008.3,-99.9,28.7,2,-9.999,9,38.63
Hakuho-maru,KH83-4,190,1983,12,1,4,,-6.8,153.717,343.3,2,359.3,2,-99,-9.9,1007.4,-99.9,28.2,2,-9.999,9,37.52
Hakuho-maru,KH83-4,191,1983,12,1,5,,-7.05,153.717,343.1,2,352.7,2,-99,-9.9,1007,-99.9,29.1,2,-9.999,9,39.53
Hakuho-maru,KH83-4,192,1983,12,1,6,,-7.3,153.717,343.3,2,353.7,2,-99,-9.9,1007,-99.9,28.7,2,-9.999,9,38.63
Hakuho-maru,KH83-4,193,1983,12,1,7,,-7.533,153.783,343.3,2,351.7,2,-99,-9.9,1007.3,-99.9,29.1,2,-9.999,9,39.53
Hakuho-maru,KH83-4,194,1983,12,1,8,,-7.75,153.833,342.8,2,347.6,2,-99,-9.9,1008.3,-99.9,29,2,-9.999,9,39.31
Hakuho-maru,KH83-4,195,1983,12,1,9,,-7.983,153.9,342.8,2,345.9,2,-99,-9.9,1008.7,-99.9,29,2,-9.999,9,39.31
Hakuho-maru,KH83-4,196,1983,12,1,10,,-8.2,153.95,343,2,348.1,2,-99,-9.9,1009.3,-99.9,28.9,2,-9.999,9,39.08
Hakuho-maru,KH83-4,197,1983,12,1,11,,-8.417,154,342.7,2,352.3,2,-99,-9.9,1009.7,-99.9,28.9,2,-9.999,9,39.08
Hakuho-maru,KH83-4,198,1983,12,1,12,,-8.617,154.067,342.4,2,341.5,2,-99,-9.9,1009.9,-99.9,29.5,2,-9.999,9,40.46
Hakuho-maru,KH83-4,199,1983,12,1,13,,-9.033,154.167,342.4,2,331.7,2,-99,-9.9,1009.8,-99.9,29.8,2,-9.999,9,41.16
Hakuho-maru,KH83-4,200,1983,12,1,14,,-9.033,154.167,342.2,2,334.9,2,-99,-9.9,1009.5,-99.9,28.9,2,-9.999,9,39.08
Hakuho-maru,KH83-4,201,1983,12,1,15,,-9.25,154.183,342,2,334.9,2,-99,-9.9,1009,-99.9,28.8,2,-9.999,9,38.85
Hakuho-maru,KH83-4,202,1983,12,1,16,,-9.45,154.217,341.8,2,346.1,2,-99,-9.9,1008.9,-99.9,28.2,2,-9.999,9,37.52
Hakuho-maru,KH83-4,209,1983,12,1,23,,-10.9,154.483,342.8,2,338.1,2,-99,-9.9,1010.5,-99.9,27.6,2,-9.999,9,36.23
Hakuho-maru,KH83-4,210,1983,12,2,0,,-11.1,154.517,342.8,2,338.3,2,-99,-9.9,1010.6,-99.9,27.9,2,-9.999,9,36.87
Hakuho-maru,KH83-4,211,1983,12,2,1,,-11.3,154.533,342.9,2,342,2,-99,-9.9,1009.9,-99.9,28,2,-9.999,9,37.09
Hakuho-maru,KH83-4,212,1983,12,2,2,,-11.5,154.567,342.7,2,351.7,2,-99,-9.9,1009.6,-99.9,28.2,2,-9.999,9,37.52
Hakuho-maru,KH83-4,213,1983,12,2,3,,-11.717,154.567,342.9,2,345.1,2,-99,-9.9,1008.8,-99.9,29.4,2,-9.999,9,40.22
Hakuho-maru,KH83-4,214,1983,12,2,4,,-11.933,154.583,342.7,2,343.7,2,-99,-9.9,1008.3,-99.9,28.5,2,-9.999,9,38.18
Hakuho-maru,KH83-4,215,1983,12,2,5,,-12.133,154.583,342.7,2,351.8,2,-99,-9.9,1007.7,-99.9,31.5,3,-9.999,9,45.36
Hakuho-maru,KH83-4,216,1983,12,2,6,,-12.35,154.583,342.6,2,345.9,2,-99,-9.9,1008,-99.9,30.2,3,-9.999,9,42.12
Hakuho-maru,KH83-4,217,1983,12,2,7,,-12.567,154.583,342.5,2,337.6,2,-99,-9.9,1008.6,-99.9,29.6,2,-9.999,9,40.69
Hakuho-maru,KH83-4,218,1983,12,2,8,,-12.8,154.583,341.8,2,327.8,2,-99,-9.9,1009,-99.9,29.4,2,-9.999,9,40.22
Hakuho-maru,KH83-4,219,1983,12,2,9,,-13.017,154.583,341.9,2,335.7,2,-99,-9.9,1009.4,-99.9,28.8,2,-9.999,9,38.85